GW5010 Weather Reports


time (UTC)temp
C
wind
direction
speed
KPH
gust
KPH
rain 1hr
cm
rain 24hr
cm
rain mn
cm
humidity
%
barometer
mb
20260509201843 20 0 3.2 4.8 0.00 0.00 0.00 54 1009.9
20260509201339 20 218 0.0 4.8 0.00 0.00 0.00 54 1010.2
20260509200836 18 43 3.2 4.8 0.00 0.00 0.00 55 1010.1
20260509200331 18 51 1.6 3.2 0.00 0.00 0.00 56 1010.1
20260509195828 18 345 1.6 4.8 0.00 0.00 0.00 58 1010.3
20260509195328 19 126 0.0 3.2 0.00 0.00 0.00 55 1010.2
20260509194828 19 311 3.2 6.4 0.00 0.00 0.00 53 1010.2
20260509194324 20 104 0.0 4.8 0.00 0.00 0.00 53 1010.5
20260509193821 20 86 4.8 8.0 0.00 0.00 0.00 55 1010.2
20260509193321 20 62 3.2 8.0 0.00 0.00 0.00 53 1010.2
20260509192817 20 23 0.0 6.4 0.00 0.00 0.00 56 1010.2
20260509192313 19 269 0.0 6.4 0.00 0.00 0.00 54 1010.3
20260509191808 19 310 0.0 4.8 0.00 0.00 0.00 55 1010.4
20260509191305 19 351 3.2 6.4 0.00 0.00 0.00 55 1010.3
20260509190800 19 145 0.0 6.4 0.00 0.00 0.00 55 1010.2
20260509190258 19 134 0.0 4.8 0.00 0.00 0.00 56 1010.3
20260509185755 19 157 1.6 4.8 0.00 0.00 0.00 54 1010.3
20260509185251 19 38 3.2 11.3 0.00 0.00 0.00 55 1010.2
20260509184749 20 72 4.8 8.0 0.00 0.00 0.00 54 1010.3
20260509184246 19 240 0.0 4.8 0.00 0.00 0.00 53 1010.5
20260509183742 19 246 0.0 8.0 0.00 0.00 0.00 55 1010.5
20260509183237 20 295 0.0 8.0 0.00 0.00 0.00 55 1010.5
20260509182733 19 305 0.0 6.4 0.00 0.00 0.00 57 1010.5
20260509182231 19 278 3.2 9.7 0.00 0.00 0.00 57 1010.5
20260509181728 19 9 0.0 4.8 0.00 0.00 0.00 58 1010.5
20260509181226 19 155 1.6 8.0 0.00 0.00 0.00 55 1010.8
20260509180723 19 342 1.6 8.0 0.00 0.00 0.00 57 1011.0
20260509180219 19 79 6.4 8.0 0.00 0.00 0.00 58 1010.9
20260509175715 18 293 0.0 9.7 0.00 0.00 0.00 60 1011.2
20260509175212 18 341 0.0 9.7 0.00 0.00 0.00 61 1011.6
20260509174707 18 200 0.0 3.2 0.00 0.00 0.00 63 1011.6
20260509174203 18 358 3.2 4.8 0.00 0.00 0.00 61 1011.6
20260509173659 17 130 1.6 4.8 0.00 0.00 0.00 63 1011.7
20260509173155 17 31 0.0 4.8 0.00 0.00 0.00 65 1012.0
20260509172651 17 341 4.8 6.4 0.00 0.00 0.00 64 1012.2
20260509172148 16 278 3.2 8.0 0.00 0.00 0.00 65 1012.2
20260509171643 17 337 4.8 8.0 0.00 0.00 0.00 63 1012.1
20260509171140 17 331 1.6 4.8 0.00 0.00 0.00 67 1012.2
20260509170637 16 89 0.0 3.2 0.00 0.00 0.00 67 1012.2
20260509170133 16 355 3.2 6.4 0.00 0.00 0.00 68 1012.2
20260509165631 16 328 1.6 4.8 0.00 0.00 0.00 67 1012.4
20260509165127 15 87 1.6 3.2 0.00 0.00 0.00 70 1012.1
20260509164623 15 44 1.6 3.2 0.00 0.00 0.00 70 1012.4
20260509164119 15 299 1.6 1.6 0.00 0.00 0.00 71 1012.2
20260509163617 15 57 0.0 3.2 0.00 0.00 0.00 68 1011.9
20260509163112 15 306 1.6 4.8 0.00 0.00 0.00 69 1011.8
20260509162610 15 353 1.6 3.2 0.00 0.00 0.00 69 1011.9
20260509162105 15 15 3.2 4.8 0.00 0.00 0.00 68 1012.0
20260509161602 15 54 3.2 3.2 0.00 0.00 0.00 70 1012.1
20260509161102 15 315 0.0 3.2 0.00 0.00 0.00 68 1012.3
20260509160558 15 277 3.2 6.4 0.00 0.00 0.00 69 1012.1
20260509160054 15 179 1.6 4.8 0.00 0.00 0.00 68 1012.4
20260509155551 15 71 0.0 6.4 0.00 0.00 0.00 70 1012.1
20260509155047 15 119 0.0 6.4 0.00 0.00 0.00 69 1012.2
20260509154543 15 107 3.2 6.4 0.00 0.00 0.00 69 1012.5
20260509154041 15 209 0.0 6.4 0.00 0.00 0.00 69 1012.5
20260509153537 15 252 3.2 8.0 0.00 0.00 0.00 69 1012.3
20260509153034 15 319 1.6 6.4 0.00 0.00 0.00 67 1012.4
20260509152530 15 91 3.2 6.4 0.00 0.00 0.00 67 1012.2
20260509152027 15 356 3.2 4.8 0.00 0.00 0.00 71 1012.3
20260509151523 15 172 0.0 3.2 0.00 0.00 0.00 68 1012.4
20260509151021 16 99 4.8 8.0 0.00 0.00 0.00 66 1012.4
20260509150518 15 333 1.6 3.2 0.00 0.00 0.00 68 1012.5
20260509150017 15 91 3.2 8.0 0.00 0.00 0.00 70 1012.3
20260509145512 15 36 0.0 4.8 0.00 0.00 0.00 72 1012.5
20260509145007 15 50 0.0 4.8 0.00 0.00 0.00 70 1012.8
20260509144505 15 135 1.6 6.4 0.00 0.00 0.00 71 1012.8
20260509144002 13 332 0.0 6.4 0.00 0.00 0.00 72 1012.6
20260509143458 13 12 3.2 8.0 0.00 0.00 0.00 75 1012.6
20260509142955 13 65 3.2 4.8 0.00 0.00 0.00 74 1012.5
20260509142452 13 131 3.2 6.4 0.00 0.00 0.00 74 1012.6
20260509141947 13 110 0.0 4.8 0.00 0.00 0.00 75 1012.6
20260509141444 13 98 0.0 6.4 0.00 0.00 0.00 76 1012.3
20260509140941 13 65 0.0 3.2 0.00 0.00 0.00 76 1012.2
20260509140437 12 114 1.6 4.8 0.00 0.00 0.00 76 1012.1
20260509135936 12 60 0.0 4.8 0.00 0.00 0.00 76 1011.9
20260509135433 12 125 0.0 8.0 0.00 0.00 0.00 77 1012.0
20260509134930 12 110 3.2 4.8 0.00 0.00 0.00 76 1012.0
20260509134427 12 98 0.0 4.8 0.00 0.00 0.00 75 1012.1
20260509133925 12 309 0.0 9.7 0.00 0.00 0.00 75 1012.2
20260509133421 12 106 3.2 6.4 0.00 0.00 0.00 75 1012.2
20260509132920 12 142 3.2 8.0 0.00 0.00 0.00 74 1012.4
20260509132417 12 38 0.0 11.3 0.00 0.00 0.00 71 1012.6
20260509131914 12 51 3.2 6.4 0.00 0.00 0.00 72 1012.5
20260509131411 12 126 0.0 4.8 0.00 0.00 0.00 73 1012.5
20260509130908 12 124 4.8 6.4 0.00 0.00 0.00 74 1012.5
20260509130403 12 89 0.0 6.4 0.00 0.00 0.00 73 1012.4
20260509125900 12 124 3.2 6.4 0.00 0.00 0.00 71 1012.3
20260509125357 12 21 0.0 4.8 0.00 0.00 0.00 69 1012.3
20260509124852 12 352 1.6 6.4 0.00 0.00 0.00 68 1012.3
20260509124350 12 51 1.6 8.0 0.00 0.00 0.00 67 1012.1
20260509123848 12 49 0.0 4.8 0.00 0.00 0.00 64 1012.3
20260509123345 13 182 1.6 4.8 0.00 0.00 0.00 65 1012.2
20260509122840 13 325 3.2 6.4 0.00 0.00 0.00 62 1012.2
20260509122337 12 83 3.2 4.8 0.00 0.00 0.00 64 1012.3
20260509121834 12 119 3.2 4.8 0.00 0.00 0.00 66 1012.5
20260509121331 12 75 0.0 1.6 0.00 0.00 0.00 68 1012.5
20260509120830 12 129 0.0 1.6 0.00 0.00 0.00 67 1012.4
20260509120327 12 343 0.0 1.6 0.00 0.00 0.00 68 1012.4
20260509115825 12 135 0.0 3.2 0.00 0.00 0.00 71 1012.4
20260509115322 12 236 1.6 3.2 0.00 0.00 0.00 72 1012.6
20260509114820 12 323 0.0 3.2 0.00 0.00 0.00 70 1012.3
20260509114318 12 218 0.0 3.2 0.00 0.00 0.00 65 1012.3
20260509113817 13 240 0.0 3.2 0.00 0.00 0.00 65 1012.1
20260509113313 13 14 1.6 3.2 0.00 0.00 0.00 65 1012.4
20260509112810 12 256 0.0 4.8 0.00 0.00 0.00 63 1012.2
20260509112308 12 236 3.2 3.2 0.00 0.00 0.00 63 1012.0
20260509111804 12 344 0.0 3.2 0.00 0.00 0.00 63 1012.0
20260509111301 12 257 1.6 3.2 0.00 0.00 0.00 61 1012.1
20260509110759 13 244 3.2 4.8 0.00 0.00 0.00 60 1012.0
20260509110255 13 245 1.6 4.8 0.00 0.00 0.00 60 1012.2
20260509105753 13 241 3.2 4.8 0.00 0.00 0.00 60 1012.3
20260509105251 13 244 1.6 4.8 0.00 0.00 0.00 59 1012.2
20260509104747 13 247 3.2 4.8 0.00 0.00 0.00 59 1012.4
20260509104244 13 252 4.8 4.8 0.00 0.00 0.00 56 1012.2
20260509103743 13 130 0.0 3.2 0.00 0.00 0.00 56 1012.1
20260509103239 13 309 0.0 3.2 0.00 0.00 0.00 56 1011.8
20260509102738 13 288 0.0 4.8 0.00 0.00 0.00 57 1011.5
20260509102234 13 188 1.6 4.8 0.00 0.00 0.00 56 1011.6
20260509101731 13 86 0.0 4.8 0.00 0.00 0.00 58 1011.6
20260509101227 13 115 3.2 4.8 0.00 0.00 0.00 58 1011.6
20260509100724 13 111 0.0 4.8 0.00 0.00 0.00 57 1011.4
20260509100222 13 116 0.0 3.2 0.00 0.00 0.00 57 1011.5
20260509095718 13 240 0.0 3.2 0.00 0.00 0.00 57 1011.5
20260509095216 13 129 0.0 4.8 0.00 0.00 0.00 58 1011.4
20260509094712 12 109 3.2 4.8 0.00 0.00 0.00 58 1011.7
20260509094209 12 92 1.6 4.8 0.00 0.00 0.00 60 1011.4
20260509093708 13 108 4.8 6.4 0.00 0.00 0.00 58 1011.6
20260509093204 13 125 4.8 6.4 0.00 0.00 0.00 57 1011.7
20260509092702 13 121 3.2 9.7 0.00 0.00 0.00 55 1011.4
20260509092200 13 124 3.2 6.4 0.00 0.00 0.00 56 1011.6
20260509091658 13 130 3.2 6.4 0.00 0.00 0.00 55 1011.4
20260509091154 13 108 3.2 6.4 0.00 0.00 0.00 55 1011.3
20260509090652 13 108 3.2 8.0 0.00 0.00 0.00 56 1011.2
20260509090149 13 132 4.8 6.4 0.00 0.00 0.00 56 1011.5
20260509085647 13 74 3.2 4.8 0.00 0.00 0.00 58 1011.7
20260509085142 13 89 0.0 3.2 0.00 0.00 0.00 57 1011.5
20260509084640 13 99 0.0 4.8 0.00 0.00 0.00 57 1011.6
20260509084137 13 50 0.0 3.2 0.00 0.00 0.00 57 1011.5
20260509083634 13 95 0.0 3.2 0.00 0.00 0.00 56 1011.5
20260509083130 13 89 0.0 3.2 0.00 0.00 0.00 56 1011.7
20260509082628 13 92 1.6 6.4 0.00 0.00 0.00 56 1011.5
20260509082125 13 89 0.0 3.2 0.00 0.00 0.00 58 1011.5
20260509081622 13 40 1.6 6.4 0.00 0.00 0.00 57 1011.4
20260509081119 13 48 0.0 3.2 0.00 0.00 0.00 57 1011.6
20260509080617 13 22 0.0 3.2 0.00 0.00 0.00 56 1011.5
20260509080114 13 218 0.0 3.2 0.00 0.00 0.00 56 1011.4
20260509075612 14 295 0.0 4.8 0.00 0.00 0.00 55 1011.6
20260509075110 14 263 1.6 4.8 0.00 0.00 0.00 53 1011.5
20260509074606 14 344 4.8 6.4 0.00 0.00 0.00 52 1011.6
20260509074103 14 211 3.2 4.8 0.00 0.00 0.00 51 1011.4
20260509073600 14 217 0.0 3.2 0.00 0.00 0.00 52 1011.5
20260509073056 14 198 0.0 6.4 0.00 0.00 0.00 51 1011.6
20260509072553 14 203 3.2 4.8 0.00 0.00 0.00 51 1011.6
20260509072049 14 211 3.2 8.0 0.00 0.00 0.00 52 1011.6
20260509071546 15 212 0.0 6.4 0.00 0.00 0.00 50 1011.5
20260509071044 14 231 3.2 3.2 0.00 0.00 0.00 54 1011.7
20260509070541 14 249 3.2 4.8 0.00 0.00 0.00 53 1011.6
20260509070037 14 59 0.0 4.8 0.00 0.00 0.00 53 1011.5
20260509065532 14 192 3.2 4.8 0.00 0.00 0.00 53 1011.6
20260509065029 14 211 1.6 6.4 0.00 0.00 0.00 53 1011.8
20260509064527 14 64 3.2 4.8 0.00 0.00 0.00 54 1011.7
20260509064025 14 110 0.0 4.8 0.00 0.00 0.00 53 1011.9
20260509063519 13 187 0.0 4.8 0.00 0.00 0.00 54 1011.8
20260509063017 14 89 0.0 3.2 0.00 0.00 0.00 54 1011.8
20260509062514 14 226 0.0 4.8 0.00 0.00 0.00 54 1011.7
20260509062012 14 133 0.0 4.8 0.00 0.00 0.00 53 1012.0
20260509061509 14 269 0.0 8.0 0.00 0.00 0.00 53 1012.1
20260509061006 15 23 4.8 6.4 0.00 0.00 0.00 51 1012.1
20260509060503 15 28 0.0 4.8 0.00 0.00 0.00 51 1012.1
20260509055959 15 227 0.0 4.8 0.00 0.00 0.00 49 1012.2
20260509055454 15 194 1.6 4.8 0.00 0.00 0.00 49 1012.1
20260509054951 15 142 0.0 6.4 0.00 0.00 0.00 50 1011.8
20260509054447 15 107 0.0 4.8 0.00 0.00 0.00 49 1012.1
20260509053946 15 116 3.2 6.4 0.00 0.00 0.00 50 1012.2
20260509053444 15 107 3.2 6.4 0.00 0.00 0.00 51 1012.1
20260509052941 15 122 0.0 16.1 0.00 0.00 0.00 48 1012.0
20260509052438 15 116 1.6 4.8 0.00 0.00 0.00 49 1012.2
20260509051936 15 110 0.0 4.8 0.00 0.00 0.00 49 1012.1
20260509051434 15 114 1.6 4.8 0.00 0.00 0.00 50 1012.2
20260509050930 15 118 3.2 6.4 0.00 0.00 0.00 50 1012.1
20260509050427 15 93 3.2 11.3 0.00 0.00 0.00 51 1012.2
20260509045924 15 138 6.4 11.3 0.00 0.00 0.00 51 1012.1
20260509045421 15 93 4.8 9.7 0.00 0.00 0.00 52 1012.1
20260509044918 15 89 6.4 8.0 0.00 0.00 0.00 50 1012.2
20260509044416 15 137 6.4 6.4 0.00 0.00 0.00 50 1012.4
20260509043912 15 110 3.2 9.7 0.00 0.00 0.00 49 1012.4
20260509043408 15 107 4.8 19.3 0.00 0.00 0.00 50 1012.4
20260509042904 15 105 3.2 6.4 0.00 0.00 0.00 50 1012.5
20260509042401 15 83 3.2 8.0 0.00 0.00 0.00 49 1012.6
20260509041857 15 114 3.2 8.0 0.00 0.00 0.00 50 1012.5
20260509041354 15 118 3.2 8.0 0.00 0.00 0.00 51 1012.4
20260509040852 15 97 4.8 8.0 0.00 0.00 0.00 50 1012.6
20260509040350 15 97 3.2 12.9 0.00 0.00 0.00 48 1012.6
20260509035847 15 122 6.4 8.0 0.00 0.00 0.00 48 1012.5
20260509035344 15 76 3.2 9.7 0.00 0.00 0.00 48 1012.7
20260509034840 15 105 4.8 6.4 0.00 0.00 0.00 50 1012.5
20260509034338 15 89 6.4 11.3 0.00 0.00 0.00 51 1012.7
20260509033834 15 67 6.4 17.7 0.00 0.00 0.00 50 1012.4
20260509033332 15 78 6.4 14.5 0.00 0.00 0.00 50 1012.6
20260509032828 15 129 6.4 8.0 0.00 0.00 0.00 50 1012.6
20260509032325 15 93 4.8 9.7 0.00 0.00 0.00 50 1012.7
20260509031823 15 92 4.8 8.0 0.00 0.00 0.00 49 1012.8
20260509031320 15 116 4.8 8.0 0.00 0.00 0.00 48 1012.7
20260509030818 15 96 8.0 8.0 0.00 0.00 0.00 48 1012.7
20260509030316 15 115 3.2 8.0 0.00 0.00 0.00 48 1012.7
20260509025812 15 119 4.8 16.1 0.00 0.00 0.00 48 1012.7
20260509025308 15 97 6.4 12.9 0.00 0.00 0.00 47 1012.7
20260509024803 15 76 6.4 8.0 0.00 0.00 0.00 47 1012.9
20260509024300 15 128 4.8 8.0 0.00 0.00 0.00 47 1012.8
20260509023757 15 87 3.2 8.0 0.00 0.00 0.00 47 1012.8
20260509023254 15 111 4.8 9.7 0.00 0.00 0.00 47 1013.0
20260509022750 15 102 6.4 8.0 0.00 0.00 0.00 47 1013.2
20260509022248 15 119 4.8 8.0 0.00 0.00 0.00 47 1013.1
20260509021745 15 139 9.7 9.7 0.00 0.00 0.00 47 1012.9
20260509021242 15 110 3.2 8.0 0.00 0.00 0.00 47 1013.1
20260509020740 15 136 4.8 8.0 0.00 0.00 0.00 47 1013.0
20260509020237 15 139 8.0 8.0 0.00 0.00 0.00 47 1013.3
20260509015735 15 140 4.8 8.0 0.00 0.00 0.00 47 1013.0
20260509015233 15 134 6.4 8.0 0.00 0.00 0.00 46 1013.0
20260509014729 15 123 3.2 8.0 0.00 0.00 0.00 47 1012.8
20260509014226 15 114 3.2 6.4 0.00 0.00 0.00 47 1013.2
20260509013723 15 130 3.2 6.4 0.00 0.00 0.00 47 1013.0
20260509013218 15 119 4.8 6.4 0.00 0.00 0.00 46 1012.9
20260509012715 15 128 4.8 8.0 0.00 0.00 0.00 45 1012.9
20260509012212 15 141 4.8 6.4 0.00 0.00 0.00 46 1012.8
20260509011709 16 140 4.8 8.0 0.00 0.00 0.00 45 1012.9
20260509011207 16 146 4.8 8.0 0.00 0.00 0.00 44 1012.9
20260509010705 16 131 4.8 6.4 0.00 0.00 0.00 44 1013.0
20260509010201 16 127 4.8 6.4 0.00 0.00 0.00 45 1012.9
20260509005658 16 129 3.2 6.4 0.00 0.00 0.00 46 1012.9
20260509005155 16 95 3.2 6.4 0.00 0.00 0.00 46 1013.0
20260509004650 16 134 4.8 8.0 0.00 0.00 0.00 47 1013.1
20260509004148 16 126 4.8 6.4 0.00 0.00 0.00 46 1012.8
20260509003646 16 130 4.8 8.0 0.00 0.00 0.00 47 1012.8
20260509003143 15 138 4.8 8.0 0.00 0.00 0.00 48 1012.9
20260509002640 15 99 3.2 8.0 0.00 0.00 0.00 48 1012.9
20260509002138 15 92 3.2 6.4 0.00 0.00 0.00 49 1012.7
20260509001635 15 108 3.2 4.8 0.00 0.00 0.00 48 1012.6
20260509001130 16 89 3.2 4.8 0.00 0.00 0.00 47 1012.7
20260509000629 16 121 3.2 4.8 0.00 0.00 0.00 47 1012.7
20260509000125 16 112 3.2 4.8 0.00 0.00 0.00 47 1012.6
20260508235623 16 119 3.2 4.8 0.00 0.00 0.00 46 1012.7
20260508235119 16 127 3.2 4.8 0.00 0.00 0.00 45 1012.6
20260508234617 16 86 3.2 3.2 0.00 0.00 0.00 47 1012.4
20260508234113 16 108 1.6 4.8 0.00 0.00 0.00 48 1012.4
20260508233613 16 88 3.2 6.4 0.00 0.00 0.00 47 1012.4
20260508233110 16 120 4.8 4.8 0.00 0.00 0.00 46 1012.4
20260508232607 16 116 3.2 3.2 0.00 0.00 0.00 45 1012.4
20260508232103 16 29 3.2 4.8 0.00 0.00 0.00 45 1012.2
20260508231601 16 141 0.0 4.8 0.00 0.00 0.00 44 1012.5
20260508231058 16 76 0.0 1.6 0.00 0.00 0.00 45 1012.4
20260508230554 17 113 0.0 3.2 0.00 0.00 0.00 46 1012.3
20260508230051 17 89 0.0 1.6 0.00 0.00 0.00 48 1012.3
20260508225548 17 227 0.0 4.8 0.00 0.00 0.00 45 1012.3
20260508225045 17 266 3.2 4.8 0.00 0.00 0.00 43 1012.5
20260508224543 17 229 3.2 4.8 0.00 0.00 0.00 44 1012.4
20260508224040 17 142 0.0 4.8 0.00 0.00 0.00 45 1012.4
20260508223538 17 251 3.2 4.8 0.00 0.00 0.00 44 1012.2
20260508223035 17 236 3.2 4.8 0.00 0.00 0.00 44 1012.3
20260508222532 17 299 0.0 4.8 0.00 0.00 0.00 44 1012.3
20260508222029 17 222 3.2 6.4 0.00 0.00 0.00 41 1012.2
20260508221525 18 253 3.2 6.4 0.00 0.00 0.00 40 1012.4
20260508221021 18 250 3.2 6.4 0.00 0.00 0.00 40 1012.2
20260508220518 17 239 4.8 8.0 0.00 0.00 0.00 41 1012.2
20260508220014 17 251 3.2 8.0 0.00 0.00 0.00 43 1012.4
20260508215511 17 264 3.2 8.0 0.00 0.00 0.00 41 1012.5
20260508215008 17 266 4.8 6.4 0.00 0.00 0.00 41 1012.2
20260508214505 17 236 3.2 8.0 0.00 0.00 0.00 42 1012.2
20260508214001 17 236 1.6 8.0 0.00 0.00 0.00 42 1012.2
20260508213459 17 240 6.4 8.0 0.00 0.00 0.00 42 1012.5
20260508212954 17 257 6.4 9.7 0.00 0.00 0.00 40 1012.5
20260508212451 17 241 6.4 12.9 0.00 0.00 0.00 40 1012.3
20260508211947 17 248 6.4 11.3 0.00 0.00 0.00 39 1012.5
20260508211443 17 278 6.4 16.1 0.00 0.00 0.00 38 1012.4
20260508210940 17 240 9.7 14.5 0.00 0.00 0.00 40 1012.4
20260508210436 17 249 8.0 14.5 0.00 0.00 0.00 39 1012.4
20260508205933 17 233 9.7 12.9 0.00 0.00 0.00 39 1012.4
20260508205430 17 241 8.0 12.9 0.00 0.00 0.00 39 1012.4
20260508204926 17 261 11.3 14.5 0.00 0.00 0.00 39 1012.3
20260508204424 17 251 11.3 12.9 0.00 0.00 0.00 40 1012.2
20260508203919 17 242 8.0 14.5 0.00 0.00 0.00 38 1012.2
20260508203416 18 234 6.4 16.1 0.00 0.00 0.00 38 1012.6
20260508202912 18 238 12.9 16.1 0.00 0.00 0.00 35 1012.4
20260508202409 18 258 9.7 12.9 0.00 0.00 0.00 35 1012.5